Regional Weather Roundup
Issued by NWS

Current Version | Previous Version | Text Only | Print | Product List | Glossary On
Versions: 1 2 3 4 5 6 7 8 9 10 11 12 13 14 15 16 17 18 19 20 21 22 23 24 25 26 27 28 29 30 31 32 33 34 35 36 37 38 39 40 41 42 43 44 45 46 47 48 49 50
000
ASCA44 KEWX 181220
RWRMX

LATIN AMERICA AND CARIBBEAN REGIONAL WEATHER ROUNDUP
NATIONAL WEATHER SERVICE AUSTIN/SAN ANTONIO TX
700 AM CDT FRI APR 18 2014

NOTE: "FAIR" INDICATED FEW OR NO CLOUDS BELOW 12,000 FEET WITH NO
SIGNIFICANT WEATHER AND/OR OBSTRUCTIONS TO VISIBILITY.

BAJA CALIFORNIA

CITY           SKY/WX    TMP DP  RH WIND       PRES   REMARKS
LA PAZ         MOCLDY    61  57  88 S8        29.87
S.J. DEL CABO  CLEAR     61  55  82 CALM      29.86
TIJUANA        CLOUDY    59  50  72 CALM      29.88F

NORTHWESTERN MEXICO

CITY           SKY/WX    TMP DP  RH WIND       PRES   REMARKS
OBREGON        CLOUDY    68  61  77 NE2       29.82

NORTHEASTERN MEXICO

CITY           SKY/WX    TMP DP  RH WIND       PRES   REMARKS
CHIHUAHUA      MOCLDY    43  18  36 S5        30.13  WCI  40
MATAMOROS      CLOUDY    68  68 100 CALM      30.09
MONTERREY      CLOUDY    66  63  88 CALM      30.11R
NUEVO LAREDO   CLOUDY    68  61  77 CALM      30.13
REYNOSA        CLOUDY    64  63  94 SE6       30.09
SALTILLO       MOCLDY    57  54  88 CALM      30.25R
TORREON        PTCLDY    64  48  55 NE9       30.09R
CD. VICTORIA   CLOUDY    68  66  94 N5        30.08  FOG

WESTERN MEXICO

CITY           SKY/WX    TMP DP  RH WIND       PRES   REMARKS
AGUASCALIENTES PTCLDY    50  28  43 N12       30.20  WCI  46
COLIMA         CLEAR     68  50  52 CALM      29.98
DEL BAJIO      CLEAR     55  36  47 NE7       30.21R
GUADALAJARA    CLEAR     54  48  82 CALM      30.13
MAZATLAN       MOCLDY    63  57  82 N6        29.85R
URUAPAN        CLEAR     55  46  71 CALM      30.16
ZACATECAS      MOCLDY    48  30  49 S7        30.23R WCI  45

CENTRAL MEXICO

CITY           SKY/WX    TMP DP  RH WIND       PRES   REMARKS
CUERNAVACA       N/A    N/A N/A N/A MISG        N/A
MEXICO CITY    PTCLDY    55  48  76 NE6       30.30R
MORELIA        PTCLDY    52  45  76 CALM      30.19
POZA RICA      LGT RAIN  70  70 100 CALM      30.06R HAZE
PUEBLA         PTCLDY    50  45  81 NW8       30.32R WCI  47
QUERETARO      CLEAR     55  43  62 CALM      30.26S
S. LUIS POTOSI PTCLDY    50  46  87 CALM      30.24R
TAMPICO        MOCLDY    72  68  88 NW7       30.03R
TOLUCA         PTCLDY    43  39  87 CALM      30.35R

SOUTHERN MEXICO

CITY           SKY/WX    TMP DP  RH WIND       PRES   REMARKS
ACAPULCO       CLEAR     79  73  83 N3        29.85S
B. DE HUATULCO PTCLDY    77  66  69 CALM      29.90
OAXACA         MOCLDY    59  54  82 NW6       30.19R
P. ESCONDIDO   CLOUDY    77  70  78 NE12      30.02
VERACRUZ       CLOUDY    73  68  83 N9        29.97R
ZIHUATANEJO    CLEAR     68  59  73 CALM      29.87

YUCATAN PENINSULA

CITY           SKY/WX    TMP DP  RH WIND       PRES   REMARKS
CAMPECHE       PTCLDY    73  72  94 CALM      29.93
CANCUN         PTCLDY    70  70 100 CALM      29.96R
CHETUMAL       PTCLDY    81  72  74 CALM      29.91R
CD. DEL CARMEN MOCLDY    79  73  83 SE12      29.90
COZUMEL        PTCLDY    68  68 100 CALM      29.96R
MERIDA         PTCLDY    73  68  83 CALM      29.94R
MINATITLAN     CLOUDY    75  70  83 N12       29.93R HAZE
TAPACHULA      PTCLDY    77  72  83 N8        29.85R
TUX. GUTIERREZ MOCLDY    77  66  69 NW9       29.94R
VILLAHERMOSA   FOG       75  73  94 CALM      29.92R VSB 1

CENTRAL AMERICA

CITY           SKY/WX    TMP DP  RH WIND       PRES   REMARKS
BELIZE CITY    PTCLDY    79  73  83 E5        29.91R
MANAGUA        MOSUNNY   75  68  78 NE5       29.86R

CARIBBEAN

CITY           SKY/WX    TMP DP  RH WIND       PRES   REMARKS
ARUBA          MOSUNNY   82  72  69 E22G36    29.89R
KINGSTON       MOSUNNY   79  70  73 VRB2      29.94R
NASSAU         MOSUNNY   79  72  78 SE9       30.08R
SAN JUAN       MOSUNNY   79  73  83 E9        30.04R
SANTO DOMINGO  MOSUNNY   75  72  88 NE7       30.00R
ST. CROIX      MOSUNNY   81  70  69 E22       30.04R
ST. KITTS      MOSUNNY   81  70  69 E17       30.03S
ST. MAARTEN    MOSUNNY   79  68  69 E16       30.06R
ST. THOMAS     SUNNY     81  70  69 E20G26    30.04R

$$




USA.gov is the U.S. government's official web portal to all federal, state and local government web resources and services.